EN

Hourly Weather Paoua

Today, 25 February, Thursday

Time Temperature Precipitation Wind Pressure Humidity
00:00 +24°C° 0 mm 1 mps 708 mmHg 26%
01:00 +23°C° 0 mm 1 mps 708 mmHg 26%
02:00 +22°C° 0 mm 1 mps 708 mmHg 27%
03:00 +22°C° 0 mm 1 mps 708 mmHg 28%
04:00 +21°C° 0 mm 1 mps 708 mmHg 29%
05:00 +21°C° 0 mm 1 mps 708 mmHg 29%
06:00 +21°C° 0 mm 1 mps 709 mmHg 30%
07:00 +22°C° 0 mm 1 mps 710 mmHg 30%
08:00 +26°C° 0 mm 1 mps 710 mmHg 25%
09:00 +30°C° 0 mm 2 mps 711 mmHg 20%
10:00 +34°C° 0 mm 2 mps 711 mmHg 14%
11:00 +36°C° 0 mm 3 mps 710 mmHg 13%
12:00 +38°C° 0 mm 3 mps 710 mmHg 12%
13:00 +40°C° 0 mm 3 mps 709 mmHg 11%
14:00 +40°C° 0 mm 3 mps 708 mmHg 12%
15:00 +40°C° 0 mm 3 mps 707 mmHg 12%
16:00 +40°C° 0 mm 3 mps 706 mmHg 12%
17:00 +37°C° 0 mm 2 mps 707 mmHg 15%
18:00 +32°C° 0 mm 1 mps 707 mmHg 18%
19:00 +29°C° 0 mm 1 mps 707 mmHg 21%
20:00 +28°C° 0 mm 1 mps 707 mmHg 22%
21:00 +27°C° 0 mm 1 mps 708 mmHg 24%
22:00 +24°C° 0 mm 0 mps 708 mmHg 25%
23:00 +26°C° 0 mm 1 mps 708 mmHg 26%

Tomorrow, 26 February, Friday

Time Temperature Precipitation Wind Pressure Humidity
00:00 +25°C° 0 mm 1 mps 708 mmHg 27%
01:00 +24°C° 0 mm 1 mps 708 mmHg 27%
02:00 +24°C° 0 mm 1 mps 708 mmHg 29%
03:00 +23°C° 0 mm 1 mps 707 mmHg 30%
04:00 +20°C° 0 mm 0 mps 707 mmHg 31%
05:00 +21°C° 0 mm 0 mps 708 mmHg 31%
06:00 +23°C° 0 mm 1 mps 708 mmHg 31%
07:00 +24°C° 0 mm 1 mps 709 mmHg 31%
08:00 +27°C° 0 mm 1 mps 710 mmHg 25%
09:00 +31°C° 0 mm 2 mps 710 mmHg 20%
10:00 +36°C° 0 mm 2 mps 711 mmHg 15%
11:00 +38°C° 0 mm 2 mps 710 mmHg 13%
12:00 +39°C° 0 mm 2 mps 709 mmHg 12%
13:00 +41°C° 0 mm 2 mps 708 mmHg 11%
14:00 +41°C° 0 mm 2 mps 707 mmHg 11%
15:00 +41°C° 0 mm 2 mps 707 mmHg 11%
16:00 +41°C° 0 mm 2 mps 706 mmHg 11%
17:00 +37°C° 0 mm 1 mps 706 mmHg 14%
18:00 +33°C° 0 mm 1 mps 706 mmHg 17%
19:00 +28°C° 0 mm 0 mps 706 mmHg 20%
20:00 +27°C° 0 mm 0 mps 706 mmHg 21%
21:00 +29°C° 0 mm 1 mps 707 mmHg 22%
22:00 +28°C° 0 mm 1 mps 707 mmHg 22%
23:00 +27°C° 0 mm 1 mps 707 mmHg 23%

Day after tomorrow, 27 February, Saturday

Time Temperature Precipitation Wind Pressure Humidity
00:00 +26°C° 0 mm 1 mps 707 mmHg 24%
01:00 +23°C° 0 mm 0 mps 706 mmHg 26%
02:00 +25°C° 0 mm 1 mps 706 mmHg 27%
03:00 +24°C° 0 mm 1 mps 706 mmHg 28%
04:00 +23°C° 0 mm 1 mps 706 mmHg 30%
05:00 +23°C° 0 mm 1 mps 707 mmHg 30%
06:00 +24°C° 0 mm 1 mps 708 mmHg 31%
07:00 +24°C° 0 mm 1 mps 709 mmHg 31%
08:00 +29°C° 0 mm 1 mps 709 mmHg 25%
09:00 +33°C° 0 mm 1 mps 710 mmHg 20%
10:00 +39°C° 0 mm 1 mps 711 mmHg 14%
11:00 +40°C° 0 mm 2 mps 710 mmHg 13%
12:00 +40°C° 0 mm 2 mps 709 mmHg 12%
13:00 +42°C° 0 mm 3 mps 708 mmHg 10%
14:00 +42°C° 0 mm 3 mps 707 mmHg 11%
15:00 +42°C° 0 mm 3 mps 707 mmHg 11%
16:00 +42°C° 0 mm 3 mps 706 mmHg 11%
17:00 +38°C° 0 mm 2 mps 706 mmHg 13%
18:00 +35°C° 0 mm 2 mps 707 mmHg 16%
19:00 +31°C° 0 mm 1 mps 707 mmHg 18%
20:00 +29°C° 0 mm 1 mps 707 mmHg 19%
21:00 +28°C° 0 mm 1 mps 707 mmHg 20%
22:00 +25°C° 0 mm 0 mps 707 mmHg 21%
23:00 +27°C° 0 mm 1 mps 707 mmHg 21%

28 February, Sunday

Time Temperature Precipitation Wind Pressure Humidity
00:00 +26°C° 0 mm 1 mps 707 mmHg 22%
01:00 +26°C° 0 mm 1 mps 707 mmHg 22%
02:00 +25°C° 0 mm 1 mps 707 mmHg 23%
03:00 +25°C° 0 mm 1 mps 707 mmHg 24%
04:00 +24°C° 0 mm 1 mps 707 mmHg 24%
05:00 +24°C° 0 mm 1 mps 707 mmHg 25%
06:00 +24°C° 0 mm 1 mps 708 mmHg 26%
07:00 +24°C° 0 mm 1 mps 708 mmHg 27%
08:00 +28°C° 0 mm 2 mps 709 mmHg 22%
09:00 +31°C° 0 mm 2 mps 709 mmHg 17%
10:00 +36°C° 0 mm 3 mps 710 mmHg 13%
11:00 +38°C° 0 mm 3 mps 709 mmHg 11%
12:00 +40°C° 0 mm 3 mps 708 mmHg 10%
13:00 +43°C° 0 mm 3 mps 708 mmHg 9%
14:00 +43°C° 0 mm 3 mps 707 mmHg 9%
15:00 +43°C° 0 mm 3 mps 706 mmHg 9%
16:00 +42°C° 0 mm 2 mps 706 mmHg 9%
17:00 +38°C° 0 mm 2 mps 706 mmHg 11%
18:00 +34°C° 0 mm 1 mps 706 mmHg 13%
19:00 +30°C° 0 mm 1 mps 706 mmHg 16%
20:00 +29°C° 0 mm 1 mps 706 mmHg 17%
21:00 +26°C° 0 mm 0 mps 707 mmHg 18%
22:00 +25°C° 0 mm 0 mps 707 mmHg 19%
23:00 +24°C° 0 mm 0 mps 707 mmHg 20%

1 March, Monday

Time Temperature Precipitation Wind Pressure Humidity
00:00 +25°C° 0 mm 1 mps 707 mmHg 20%
01:00 +25°C° 0 mm 1 mps 706 mmHg 21%
02:00 +24°C° 0 mm 1 mps 706 mmHg 22%
03:00 +24°C° 0 mm 1 mps 706 mmHg 22%
04:00 +23°C° 0 mm 2 mps 706 mmHg 23%
05:00 +23°C° 0 mm 2 mps 707 mmHg 23%
06:00 +23°C° 0 mm 2 mps 708 mmHg 24%
07:00 +23°C° 0 mm 2 mps 708 mmHg 24%
08:00 +27°C° 0 mm 2 mps 709 mmHg 20%
09:00 +31°C° 0 mm 3 mps 709 mmHg 16%
10:00 +36°C° 0 mm 3 mps 710 mmHg 11%
11:00 +38°C° 0 mm 3 mps 709 mmHg 10%
12:00 +40°C° 0 mm 3 mps 708 mmHg 9%
13:00 +43°C° 0 mm 3 mps 708 mmHg 8%
14:00 +43°C° 0 mm 3 mps 707 mmHg 8%
15:00 +42°C° 0 mm 3 mps 706 mmHg 8%
16:00 +41°C° 0 mm 2 mps 706 mmHg 8%
17:00 +38°C° 0 mm 2 mps 706 mmHg 10%
18:00 +33°C° 0 mm 1 mps 706 mmHg 13%
19:00 +28°C° 0 mm 0 mps 706 mmHg 15%
20:00 +27°C° 0 mm 0 mps 706 mmHg 16%
21:00 +26°C° 0 mm 0 mps 707 mmHg 17%
22:00 +25°C° 0 mm 0 mps 707 mmHg 18%
23:00 +26°C° 0 mm 1 mps 707 mmHg 18%

2 March, Tuesday

Time Temperature Precipitation Wind Pressure Humidity
00:00 +26°C° 0 mm 1 mps 707 mmHg 19%
01:00 +25°C° 0 mm 1 mps 707 mmHg 19%
02:00 +24°C° 0 mm 1 mps 707 mmHg 20%
03:00 +23°C° 0 mm 1 mps 706 mmHg 21%
04:00 +23°C° 0 mm 1 mps 706 mmHg 21%
05:00 +23°C° 0 mm 2 mps 707 mmHg 22%
06:00 +23°C° 0 mm 2 mps 708 mmHg 22%
07:00 +23°C° 0 mm 2 mps 708 mmHg 22%
08:00 +26°C° 0 mm 2 mps 709 mmHg 18%
09:00 +30°C° 0 mm 2 mps 709 mmHg 15%
10:00 +35°C° 0 mm 3 mps 710 mmHg 11%
11:00 +37°C° 0 mm 3 mps 709 mmHg 10%
12:00 +39°C° 0 mm 3 mps 709 mmHg 9%
13:00 +43°C° 0 mm 3 mps 708 mmHg 8%
14:00 +42°C° 0 mm 2 mps 707 mmHg 8%
15:00 +42°C° 0 mm 2 mps 706 mmHg 8%
16:00 +42°C° 0 mm 2 mps 706 mmHg 8%
17:00 +37°C° 0 mm 1 mps 706 mmHg 10%
18:00 +34°C° 0 mm 1 mps 706 mmHg 12%
19:00 +30°C° 0 mm 1 mps 706 mmHg 15%
20:00 +29°C° 0 mm 1 mps 706 mmHg 16%
21:00 +28°C° 0 mm 1 mps 707 mmHg 16%
22:00 +27°C° 0 mm 1 mps 707 mmHg 17%
23:00 +26°C° 0 mm 1 mps 707 mmHg 18%
Show more

We Need Your Consent

Meteoprog and our Service Providers may store and access personal data such as cookies, device identifiers or other similar technologies on your device and process such data to personalise content and ads, as well as provide social media features and to analyse the traffic.

  • Store and/or access information on your device

    Cookies, device identifiers or other information can be stored or accessed on your device for the purposes indicated above.

  • Personalised ads and content, ad and content measurement, audience insights, and products development

    Ads and content can be personalised based on a profile. More data can be added to better personalise ads and content. Ad and content performance can be measured. Insights about the audience who saw the ads and content can be derived. Such data can be used to develop or improve user’s experience, systems and software.

By clicking ‘I Agree’ you will allow the use of indicated cookies, device identifiers, web beacons or other similar technologies. Your settings can be changed in the browser on your device.

For certain purposes, legitimate interests may be relied on, rather than consent. You can read more about this in our Privacy and Cookie Policy.